Regional Weather Roundup
Issued by NWS Newport/Morehead, NC

Home | Current Version | Previous Version | Text Only | Print | Product List | Glossary On
Versions: 1 2 3 4 5 6 7 8 9 10 11 12 13 14 15 16 17 18 19 20 21 22 23 24 25 26 27 28 29 30 31 32 33 34 35 36 37 38 39 40 41 42 43 44 45 46 47 48 49 50
578
ASUS42 KMHX 271425
RWRMHX
WEATHER ROUNDUP FOR EASTERN NORTH CAROLINA
NATIONAL WEATHER SERVICE NEWPORT/MOREHEAD CITY NC
1000 AM EDT THU JUL 27 2017

NOTE: "FAIR" INDICATES FEW OR NO CLOUDS BELOW 12,000 FEET
WITH NO SIGNIFICANT WEATHER AND/OR OBSTRUCTIONS TO VISIBILITY

NCZ015>017-031-032-045>047-102-103-271500-
NORTH COAST

CITY           SKY/WX    TMP DP  RH WIND       PRES   REMARKS
EDENTON        MOSUNNY   81  71  71 CALM      30.08S
ELIZABETH CITY CLOUDY    79  71  76 SW8       30.07F
KITTY HAWK     MOSUNNY   79  67  66 CALM      30.06F
MANTEO         SUNNY     80  67  65 SW5       30.08S

$$

NCZ045>047-081-094-103-104-271500-
CENTRAL COAST

CITY           SKY/WX    TMP DP  RH WIND       PRES   REMARKS
FRISCO         SUNNY     82  68  62 SE3       30.08S

$$

NCZ095-097-098-100-101-271500-
SOUTHERN COAST

CITY           SKY/WX    TMP DP  RH WIND       PRES   REMARKS
BEAUFORT       SUNNY     83  70  64 S6        30.07F
CEDAR ISLAND   NOT AVBL
JACKSONVILLE   SUNNY     83  74  74 SE7       30.07S
PINEY ISLAND   SUNNY    N/A N/A N/A S7        30.07F
WILMINGTON     MOSUNNY   84  72  67 VRB5      30.08R


$$

NCZ011>013-027>030-043-044-078>080-089-090>093-098-271500-
COASTAL PLAIN

CITY           SKY/WX    TMP DP  RH WIND       PRES   REMARKS
AHOSKIE          N/A     77  71  81 S3        30.07S
CLINTON        SUNNY     82  74  77 SW6       30.08F
ELIZABETHTOWN  NOT AVBL
GOLDSBORO      SUNNY     82  76  81 S5        30.06F
GREENVILLE     SUNNY     81  72  74 SW8       30.09S
HAVELOCK       MOSUNNY   83  70  64 S7        30.08F
KENANSVILLE    SUNNY     82  72  69 SW5       30.08F
KINSTON        SUNNY     82  70  65 SW7       30.08F
NEW BERN       SUNNY     83  71  67 VRB3      30.09S
RICHLANDS      SUNNY     83  75  77 SW3       30.08F
ROCKY MOUNT    MOSUNNY   79  73  82 S6        30.08F
WASHINGTON     MOSUNNY   81  69  65 W7        30.08S
WHITEVILLE     MOSUNNY   82  73  72 CALM      30.08S

$$

AMZ130-135-150-152-154-156-158-170-250-252-270-ANZ085-086-088-633-658-670-271500-
MARINE OBSERVATIONS

STATION/POSITION TIME  TEMP    WIND        PRES    WAVE   SWELL
                       AIR SEA DIR/SP/G            HT/PER HT/PER
                 (UTC) (F)     (DEG/KT/KT) (MB)    (FT/S) (FT/S)
CHESAPEAKE LIGHT NOT AVBL
64 E VA BEACH    1350   75 77  220/  4/  4 1018.7    3/ 8   3/ 8
DUCK             1400   78 70  200/  5/  8 1017.8
2 E DUCK         1400      74                N/A     2/ 6
OREGON INLET     1400   79 76  170/  5/  6 1018.2
13E OREGON INLT  1348      78                N/A     3/ 8   3/ 8
HATTERAS CG      1400   81 78  140/  2/  3 1018.3
DIAMOND BUOY     1350   81 84  190/  2/  2 1018.3    3/ 8   3/ 8
CAPE LOOKOUT     1400   82     110/  2/  3 1018.0
BEAUFORT LAB     1400   81 79  190/  6/  7 1017.8
30 SE NEW RVR IN 1408   82 84  140/  4/  8 1018.4
30 SE NEW RVR IN 1343      84                N/A     2/ 7
27 SE WRIGHTSVLE 1408   82 83  140/  8/ 10 1018.1
5 SE WRIGHTSVLE  1408   81 81  140/  6/  8 1018.3
225 S CAPE HAT   1350   81 83  290/ 12/ 14 1017.6    3/ 7   3/ 7
41 SE CHARLESTON 1410   78 83  230/ 16/ 19 1017.5

$$




USA.gov is the U.S. government's official web portal to all federal, state and local government web resources and services.